Regional Weather Roundup
Issued by NWS State College, PA

Home | Current Version | Previous Version | Text Only | Print | Product List | Glossary On
Versions: 1 2 3 4 5 6 7 8 9 10 11 12 13 14 15 16 17 18 19 20 21 22 23 24 25 26 27 28 29 30 31 32 33 34 35 36 37 38 39 40 41 42 43 44 45 46 47 48 49 50
000
ASUS41 KCTP 031310
RWRCTP

REGIONAL WEATHER ROUNDUP
NATIONAL WEATHER SERVICE STATE COLLEGE PA
900 AM EDT THU SEP 03 2015

Note: "fair" indicates few or no clouds below 12,000 feet with no
significant weather and/or obstructions to visibility.

* = STATION THAT DOES NOT REPORT PRECIPITATION /E.G. RAIN...SNOW...ETC/
    THUNDER OR FOG.

PAZ002>004-007>009-013>016-020>023-029>032-031400-
WESTERN PENNSYLVANIA

CITY           SKY/WX    TMP DP  RH WIND       PRES   REMARKS
ERIE           MOSUNNY   74  69  85 S6        29.97S
MEADVILLE      PTSUNNY   72  68  87 W5        30.01F FOG
FRANKLIN*      PTSUNNY   72  66  83 W3        30.04S
NEW CASTLE     FAIR      72  72 100 CALM      30.01F
BEAVER COUNTY  SUNNY     73  72  94 CALM      30.02S
BUTLER*        MOSUNNY   70  66  88 CALM      30.03S
PITTSBURGH INT CLOUDY    73  66  78 VRB5      30.02R
PITTSBURGH     MOSUNNY   70  63  78 S6        30.02S
INDIANA*       PTSUNNY   70  68  94 MISG      30.06S FOG
LATROBE        CLOUDY    70  68  94 SW10      30.04R
WASHINGTON CO* MOSUNNY   72  66  83 CALM      30.04S
$$

PAZ004>006-010>012-017>019-024>028-033>037-041-042-045-046-049>053-031400-
CENTRAL PENNSYLVANIA

CITY           SKY/WX    TMP DP  RH WIND       PRES   REMARKS
BRADFORD       MOSUNNY   66  63  90 CALM      30.04S FOG
DUBOIS         FOG       69  66  90 W6        30.03S VSB 1
CLEARFIELD     PTSUNNY   67  65  93 SW7       30.03R FOG
JOHNSTOWN      PTSUNNY   68  64  87 SW5       30.06S FOG
ALTOONA        SUNNY     73  66  78 CALM      30.03R HAZE
STATE COLLEGE  SUNNY     72  68  88 W5        30.00R
WILLIAMSPORT   PTSUNNY   73  67  81 W7        29.95S HAZE
SELINSGROVE    SUNNY     73  68  84 CALM      29.96R HAZE
FT INDIANTOWN  SUNNY     76  68  76 E1        29.94R
CAPITAL CITY   SUNNY     76  67  73 W6        29.94R
HARRISBURG     SUNNY     77  67  71 NW10      29.93R
YORK           SUNNY     75  69  81 NW3       29.95R HAZE
$$

PAZ038>040-043-044-047-048-054-055-060>062-067>071-031400-
EASTERN PENNSYLVANIA

CITY           SKY/WX    TMP DP  RH WIND       PRES   REMARKS
SCRANTON       SUNNY     72  64  76 CALM      29.97S HAZE
MOUNT POCONO   SUNNY     73  66  78 N7        29.99S HAZE
ALLENTOWN      SUNNY     75  66  73 W3        29.92F HAZE
QUAKERTOWN*    SUNNY     77  68  73 NW5       29.94S
READING        SUNNY     75  67  76 CALM      29.92S
LANCASTER      SUNNY     74  67  78 W3        29.93S HAZE
COATESVILLE    SUNNY     77  70  78 N5        29.94S
POTTSTOWN      SUNNY     74  68  81 CALM      29.94S
BLUE BELL      SUNNY     79  70  73 CALM      29.92R
DOYLESTOWN     SUNNY     77  66  68 VRB5      29.91S
WILLOW GROVE   NOT AVBL
NORTH PHILA    MOSUNNY   80  64  58 VRB6      29.92S
PHILADELPHIA   PTSUNNY   81  65  58 NW6       29.91S
$$



USA.gov is the U.S. government's official web portal to all federal, state and local government web resources and services.